Change the Weather History Date:

Monday, January 14, 2013

  Actual Average Record
Temperature  
Mean Temperature 62 °F -  
Max Temperature 75 °F 51 °F 75 °F (2005)
Min Temperature 50 °F 31 °F 19 °F (1962)
Degree Days  
Heating Degree Days 2    
Growing Degree Days 12 (Base 50)    
Moisture  
Dew Point 59 °F    
Average Humidity 89    
Maximum Humidity 100    
Minimum Humidity 59    
Precipitation  
Precipitation 0.01 in - - ()
Sea Level Pressure  
Sea Level Pressure 30.14 in    
Wind  
Wind Speed 0 mph (WSW)    
Max Wind Speed 8 mph    
Max Gust Speed -    
Visibility 8 miles    
Events Fog    
Averages and records for this station are not official NWS values.
T = Trace of Precipitation, MM = Missing Value Source: NWS Daily Summary

Daily Weather History Graph

Daily Weather History Graph

Search for Another Location

Airport or City:

Trip Planner

Search our weather history database for the weather conditions in past years. The results will help you decide how hot, cold, wet, or windy it might be!

Date:

Astronomy

Jan. 14, 2013 Rise Set
Actual Time 7:16 AM EST 5:14 PM EST
Civil Twilight 6:48 AM EST 5:42 PM EST
Nautical Twilight 6:16 AM EST 6:14 PM EST
Astronomical Twilight 5:46 AM EST 6:45 PM EST
Moon 8:56 AM EST (1/14) 8:49 PM EST (1/14)
Length of Visible Light 10h 54m
Length of Day
9h 58m
Waxing Crescent, 11% of the Moon is Illuminated
Jan 14
Waxing Crescent
Jan 18
First Quarter
Jan 26
Full
Feb 3
Last Quarter
Feb 10
New

Hourly Weather History & Observations

Time (EST) Temp. Dew Point Humidity Pressure Visibility Wind Dir Wind Speed Gust Speed Precip Events Conditions
12:15 AM 57.7 °F 57.7 °F 100% 30.11 in 10.0 mi Calm Calm - N/A   Clear
12:35 AM 58.3 °F 58.3 °F 100% 30.11 in 10.0 mi Calm Calm - N/A   Clear
12:55 AM 58.5 °F 58.5 °F 100% 30.12 in 10.0 mi Calm Calm - N/A   Clear
1:15 AM 58.8 °F 58.8 °F 100% 30.12 in 10.0 mi Calm Calm - N/A   Clear
1:35 AM 58.6 °F 58.6 °F 100% 30.12 in 10.0 mi Calm Calm - N/A   Clear
1:55 AM 58.1 °F 58.1 °F 100% 30.12 in 10.0 mi Calm Calm - N/A   Clear
2:15 AM 58.1 °F 58.1 °F 100% 30.12 in 10.0 mi Calm Calm - N/A   Clear
2:35 AM 58.1 °F 58.1 °F 100% 30.12 in 10.0 mi Calm Calm - N/A   Clear
2:55 AM 57.9 °F 57.9 °F 100% 30.13 in 10.0 mi Calm Calm - N/A   Clear
3:15 AM 57.9 °F 57.9 °F 100% 30.14 in 10.0 mi Calm Calm - N/A   Clear
3:55 AM 56.1 °F 56.1 °F 100% 30.12 in 7.0 mi Calm Calm - N/A   Clear
4:15 AM 56.3 °F 56.3 °F 100% 30.12 in 7.0 mi Calm Calm - N/A   Clear
4:35 AM 56.5 °F 56.5 °F 100% 30.12 in 0.8 mi Calm Calm - N/A   Mist
4:55 AM 54.3 °F 54.3 °F 100% 30.12 in 0.5 mi Calm Calm - N/A Fog Fog
5:15 AM 56.7 °F 56.7 °F 100% 30.12 in 1.2 mi Calm Calm - N/A   Mist
5:35 AM 53.6 °F 53.6 °F 100% 30.12 in 0.2 mi Calm Calm - 0.01 in Fog Fog
5:55 AM 53.8 °F 53.8 °F 100% 30.13 in 0.2 mi Calm Calm - 0.01 in Fog Fog
6:15 AM 50.9 °F 50.9 °F 100% 30.14 in 0.2 mi Calm Calm - N/A Fog Fog
6:35 AM 51.3 °F 51.3 °F 100% 30.14 in 0.2 mi Calm Calm - N/A Fog Fog
6:55 AM 53.4 °F 53.4 °F 100% 30.15 in 0.2 mi Calm Calm - N/A Fog Fog
7:15 AM 53.4 °F 53.4 °F 100% 30.15 in 0.2 mi Calm Calm - N/A Fog Fog
7:35 AM 52.7 °F 52.7 °F 100% 30.15 in 0.2 mi Calm Calm - N/A Fog Fog
7:55 AM 53.8 °F 53.8 °F 100% 30.16 in 0.5 mi Calm Calm - N/A Fog Fog
8:15 AM 57.2 °F 57.2 °F 100% 30.17 in 4.0 mi Calm Calm - N/A   Clear
8:35 AM 57.9 °F 57.9 °F 100% 30.17 in 7.0 mi Calm Calm - N/A   Clear
8:55 AM 59.0 °F 59.0 °F 100% 30.17 in 10.0 mi Calm Calm - N/A   Clear
9:15 AM 59.2 °F 59.2 °F 100% 30.18 in 10.0 mi Calm Calm - N/A   Clear
9:35 AM 61.0 °F 61.0 °F 100% 30.17 in 10.0 mi Calm Calm - N/A   Clear
9:55 AM 62.4 °F 62.4 °F 100% 30.18 in 10.0 mi Calm Calm - N/A   Clear
10:15 AM 64.8 °F 62.1 °F 91% 30.17 in 10.0 mi Calm Calm - N/A   Clear
10:35 AM 66.6 °F 62.1 °F 85% 30.17 in 10.0 mi Calm Calm - N/A   Clear
10:55 AM 68.5 °F 62.6 °F 81% 30.17 in 10.0 mi Calm Calm - N/A   Clear
11:15 AM 70.2 °F 63.5 °F 79% 30.16 in 10.0 mi WSW 8.1 mph - N/A   Clear
11:35 AM 70.9 °F 62.8 °F 75% 30.15 in 10.0 mi Calm Calm - N/A   Clear
11:55 AM 72.0 °F 60.4 °F 67% 30.14 in 10.0 mi Calm Calm - N/A   Clear
12:15 PM 71.6 °F 59.5 °F 66% 30.13 in 10.0 mi Calm Calm - N/A   Clear
12:35 PM 72.9 °F 59.5 °F 63% 30.12 in 10.0 mi Calm Calm - N/A   Clear
12:55 PM 73.2 °F 59.9 °F 63% 30.12 in 10.0 mi Calm Calm - N/A   Clear
1:15 PM 73.0 °F 60.1 °F 64% 30.12 in 10.0 mi Calm Calm - N/A   Clear
1:35 PM 73.6 °F 60.3 °F 63% 30.12 in 10.0 mi Calm Calm - N/A   Clear
1:55 PM 74.8 °F 59.9 °F 60% 30.11 in 10.0 mi Calm Calm - N/A   Scattered Clouds
2:15 PM 74.3 °F 60.3 °F 61% 30.12 in 10.0 mi Calm Calm - N/A   Scattered Clouds
2:35 PM 75.2 °F 60.3 °F 60% 30.12 in 10.0 mi Calm Calm - N/A   Scattered Clouds
2:55 PM 75.6 °F 60.4 °F 59% 30.12 in 10.0 mi Calm Calm - N/A   Clear
3:15 PM 74.8 °F 59.9 °F 60% 30.12 in 10.0 mi Calm Calm - N/A   Scattered Clouds
3:55 PM 72.3 °F 61.5 °F 69% 30.13 in 10.0 mi Calm Calm - N/A   Scattered Clouds
4:15 PM 72.7 °F 61.5 °F 68% 30.14 in 10.0 mi Calm Calm - N/A   Scattered Clouds
4:35 PM 72.5 °F 61.0 °F 67% 30.13 in 10.0 mi Calm Calm - N/A   Scattered Clouds
4:55 PM 71.4 °F 61.5 °F 71% 30.13 in 10.0 mi Calm Calm - N/A   Scattered Clouds
5:35 PM 66.2 °F 60.6 °F 82% 30.13 in 10.0 mi Calm Calm - N/A   Clear
5:55 PM 65.7 °F 59.9 °F 82% 30.14 in 10.0 mi Calm Calm - N/A   Scattered Clouds
6:15 PM 68.0 °F 61.2 °F 79% 30.14 in 10.0 mi Calm Calm - N/A   Scattered Clouds
6:35 PM 67.1 °F 61.2 °F 81% 30.14 in 10.0 mi Calm Calm - N/A   Clear
6:55 PM 66.7 °F 61.5 °F 83% 30.14 in 10.0 mi Calm Calm - N/A   Clear
7:15 PM 66.0 °F 62.2 °F 88% 30.14 in 10.0 mi Calm Calm - N/A   Clear
7:35 PM 64.2 °F 61.7 °F 91% 30.14 in 10.0 mi Calm Calm - N/A   Clear
7:55 PM 63.1 °F 61.7 °F 95% 30.14 in 10.0 mi Calm Calm - N/A   Clear
8:15 PM 61.9 °F 61.7 °F 99% 30.14 in 10.0 mi Calm Calm - N/A   Clear
8:35 PM 61.9 °F 61.9 °F 100% 30.13 in 10.0 mi Calm Calm - N/A   Scattered Clouds
8:55 PM 61.7 °F 61.7 °F 100% 30.13 in 10.0 mi Calm Calm - N/A   Scattered Clouds
9:15 PM 62.1 °F 62.1 °F 100% 30.12 in 10.0 mi Calm Calm - N/A   Mostly Cloudy
9:35 PM 62.1 °F 62.1 °F 100% 30.12 in 10.0 mi Calm Calm - N/A   Overcast
9:55 PM 61.3 °F 61.3 °F 100% 30.13 in 10.0 mi Calm Calm - N/A   Scattered Clouds
10:15 PM 61.7 °F 61.7 °F 100% 30.14 in 10.0 mi Calm Calm - N/A   Mostly Cloudy
10:35 PM 61.0 °F 61.0 °F 100% 30.13 in 10.0 mi Calm Calm - N/A   Mostly Cloudy
11:15 PM 60.6 °F 60.6 °F 100% 30.14 in 10.0 mi Calm Calm - N/A   Overcast
11:35 PM 60.8 °F 60.8 °F 100% 30.14 in 10.0 mi Calm Calm - N/A   Overcast
11:55 PM 59.9 °F 59.9 °F 100% 30.15 in 10.0 mi Calm Calm - N/A   Mostly Cloudy